When you browse on this site, cookies collect data to enhance your experience and personalize the content and advertising you see.
Visit our Privacy Policy to learn more. By continuing to use the site, you agree to this use of cookies and data.
  • In Romania
  • List of Countries
  • For 7 days
  • Water Temperature
  • Satellite Maps
  • Weather Map
  • Weather Widgets
  • user-avatar
    Login

    Hourly Weather Zebocin

    Today, 27 June, Thursday

    Time Temperature Precipitation Wind Pressure Humidity
    00:00 +26°C° 0.2 mm 4 mps 743 mmHg 80%
    01:00 +25°C° 0.2 mm 4 mps 743 mmHg 82%
    02:00 +25°C° 0.6 mm 4 mps 743 mmHg 85%
    03:00 +23°C° 0.6 mm 5 mps 743 mmHg 88%
    04:00 +23°C° 0.6 mm 5 mps 742 mmHg 92%
    05:00 +23°C° 0.4 mm 5 mps 743 mmHg 89%
    06:00 +23°C° 0.4 mm 5 mps 743 mmHg 86%
    07:00 +25°C° 0.4 mm 5 mps 743 mmHg 84%
    08:00 +24°C° 0 mm 6 mps 743 mmHg 78%
    09:00 +26°C° 0 mm 7 mps 743 mmHg 72%
    10:00 +26°C° 0 mm 7 mps 743 mmHg 65%
    11:00 +26°C° 0 mm 7 mps 743 mmHg 60%
    12:00 +26°C° 0 mm 7 mps 743 mmHg 54%
    13:00 +26°C° 0 mm 8 mps 743 mmHg 49%
    14:00 +26°C° 0 mm 7 mps 743 mmHg 50%
    15:00 +24°C° 0 mm 7 mps 743 mmHg 51%
    16:00 +23°C° 0 mm 6 mps 742 mmHg 53%
    17:00 +22°C° 0 mm 6 mps 742 mmHg 57%
    18:00 +21°C° 0 mm 5 mps 742 mmHg 62%
    19:00 +19°C° 0 mm 4 mps 742 mmHg 67%
    20:00 +18°C° 0 mm 4 mps 742 mmHg 69%
    21:00 +18°C° 0 mm 4 mps 743 mmHg 70%
    22:00 +17°C° 0 mm 3 mps 743 mmHg 72%
    23:00 +16°C° 0 mm 3 mps 743 mmHg 78%

    Tomorrow, 28 June, Friday

    Time Temperature Precipitation Wind Pressure Humidity
    00:00 +14°C° 0 mm 3 mps 744 mmHg 84%
    01:00 +14°C° 0 mm 3 mps 744 mmHg 89%
    02:00 +14°C° 0 mm 3 mps 744 mmHg 92%
    03:00 +13°C° 0 mm 3 mps 744 mmHg 94%
    04:00 +13°C° 0 mm 3 mps 744 mmHg 96%
    05:00 +14°C° 0 mm 3 mps 744 mmHg 89%
    06:00 +15°C° 0 mm 4 mps 745 mmHg 82%
    07:00 +17°C° 0 mm 4 mps 745 mmHg 75%
    08:00 +18°C° 0 mm 4 mps 745 mmHg 68%
    09:00 +19°C° 0 mm 4 mps 745 mmHg 61%
    10:00 +20°C° 0 mm 5 mps 745 mmHg 54%
    11:00 +21°C° 0 mm 5 mps 745 mmHg 53%
    12:00 +21°C° 0 mm 5 mps 745 mmHg 52%
    13:00 +22°C° 0 mm 5 mps 744 mmHg 51%
    14:00 +22°C° 0 mm 5 mps 744 mmHg 52%
    15:00 +22°C° 0 mm 4 mps 744 mmHg 54%
    16:00 +22°C° 0 mm 4 mps 744 mmHg 55%
    17:00 +21°C° 0.2 mm 3 mps 744 mmHg 63%
    18:00 +20°C° 0.2 mm 3 mps 744 mmHg 72%
    19:00 +19°C° 0.2 mm 2 mps 744 mmHg 80%
    20:00 +18°C° 0.1 mm 2 mps 744 mmHg 83%
    21:00 +16°C° 0.1 mm 2 mps 744 mmHg 87%
    22:00 +15°C° 0.1 mm 2 mps 745 mmHg 90%
    23:00 +14°C° 0 mm 2 mps 745 mmHg 89%

    Day after tomorrow, 29 June, Saturday

    Time Temperature Precipitation Wind Pressure Humidity
    00:00 +13°C° 0 mm 2 mps 745 mmHg 88%
    01:00 +12°C° 0 mm 3 mps 745 mmHg 87%
    02:00 +12°C° 0 mm 2 mps 745 mmHg 87%
    03:00 +10°C° 0 mm 2 mps 745 mmHg 87%
    04:00 +9°C° 0 mm 2 mps 745 mmHg 87%
    05:00 +12°C° 0 mm 2 mps 746 mmHg 81%
    06:00 +14°C° 0 mm 2 mps 746 mmHg 75%
    07:00 +15°C° 0 mm 2 mps 746 mmHg 70%
    08:00 +17°C° 0 mm 2 mps 746 mmHg 64%
    09:00 +18°C° 0 mm 2 mps 746 mmHg 58%
    10:00 +20°C° 0 mm 2 mps 746 mmHg 52%
    11:00 +21°C° 0 mm 2 mps 746 mmHg 50%
    12:00 +23°C° 0 mm 2 mps 746 mmHg 49%
    13:00 +24°C° 0 mm 2 mps 745 mmHg 48%
    14:00 +24°C° 0 mm 2 mps 745 mmHg 48%
    15:00 +24°C° 0 mm 2 mps 745 mmHg 48%
    16:00 +24°C° 0 mm 2 mps 744 mmHg 49%
    17:00 +23°C° 0 mm 2 mps 744 mmHg 54%
    18:00 +21°C° 0 mm 2 mps 744 mmHg 60%
    19:00 +20°C° 0 mm 2 mps 744 mmHg 66%
    20:00 +19°C° 0 mm 2 mps 744 mmHg 67%
    21:00 +18°C° 0 mm 2 mps 744 mmHg 69%
    22:00 +17°C° 0 mm 2 mps 744 mmHg 71%
    23:00 +16°C° 0 mm 2 mps 744 mmHg 71%

    30 June, Sunday

    Time Temperature Precipitation Wind Pressure Humidity
    00:00 +16°C° 0 mm 2 mps 744 mmHg 72%
    01:00 +15°C° 0 mm 2 mps 744 mmHg 72%
    02:00 +15°C° 0 mm 2 mps 744 mmHg 72%
    03:00 +15°C° 0 mm 2 mps 744 mmHg 72%
    04:00 +15°C° 0 mm 2 mps 744 mmHg 72%
    05:00 +17°C° 0 mm 2 mps 744 mmHg 69%
    06:00 +19°C° 0 mm 2 mps 744 mmHg 65%
    07:00 +21°C° 0 mm 2 mps 744 mmHg 62%
    08:00 +23°C° 0 mm 2 mps 744 mmHg 57%
    09:00 +25°C° 0 mm 2 mps 745 mmHg 53%
    10:00 +27°C° 0 mm 2 mps 745 mmHg 48%
    11:00 +28°C° 0 mm 2 mps 744 mmHg 47%
    12:00 +29°C° 0 mm 2 mps 744 mmHg 45%
    13:00 +30°C° 0 mm 2 mps 744 mmHg 43%
    14:00 +30°C° 0 mm 2 mps 743 mmHg 43%
    15:00 +30°C° 0 mm 1 mps 743 mmHg 44%
    16:00 +30°C° 0 mm 1 mps 743 mmHg 44%
    17:00 +29°C° 0 mm 2 mps 743 mmHg 52%
    18:00 +27°C° 0 mm 2 mps 743 mmHg 59%
    19:00 +25°C° 0 mm 2 mps 742 mmHg 66%
    20:00 +24°C° 0 mm 2 mps 742 mmHg 70%
    21:00 +23°C° 0 mm 2 mps 743 mmHg 73%
    22:00 +20°C° 0 mm 2 mps 743 mmHg 77%
    23:00 +20°C° 0 mm 2 mps 742 mmHg 78%

    1 July, Monday

    Time Temperature Precipitation Wind Pressure Humidity
    00:00 +19°C° 0 mm 2 mps 742 mmHg 80%
    01:00 +19°C° 0 mm 2 mps 742 mmHg 81%
    02:00 +18°C° 0 mm 2 mps 742 mmHg 82%
    03:00 +18°C° 0 mm 2 mps 741 mmHg 84%
    04:00 +18°C° 0 mm 3 mps 741 mmHg 85%
    05:00 +20°C° 0 mm 3 mps 741 mmHg 79%
    06:00 +22°C° 0 mm 4 mps 741 mmHg 73%
    07:00 +25°C° 0 mm 4 mps 741 mmHg 67%
    08:00 +26°C° 0 mm 4 mps 741 mmHg 64%
    09:00 +28°C° 0 mm 5 mps 741 mmHg 61%
    10:00 +30°C° 0 mm 5 mps 741 mmHg 58%
    11:00 +30°C° 0 mm 5 mps 741 mmHg 56%
    12:00 +32°C° 0 mm 5 mps 741 mmHg 53%
    13:00 +33°C° 0 mm 5 mps 740 mmHg 51%
    14:00 +33°C° 0 mm 5 mps 740 mmHg 52%
    15:00 +33°C° 0 mm 5 mps 740 mmHg 53%
    16:00 +33°C° 0 mm 4 mps 739 mmHg 54%
    17:00 +28°C° 5.9 mm 4 mps 739 mmHg 67%
    18:00 +24°C° 5.9 mm 3 mps 739 mmHg 79%
    19:00 +19°C° 5.9 mm 3 mps 739 mmHg 91%
    20:00 +19°C° 0.2 mm 3 mps 739 mmHg 91%
    21:00 +18°C° 0.2 mm 2 mps 740 mmHg 90%
    22:00 +18°C° 0.2 mm 2 mps 740 mmHg 90%
    23:00 +18°C° 0.1 mm 2 mps 740 mmHg 90%

    2 July, Tuesday

    Time Temperature Precipitation Wind Pressure Humidity
    00:00 +18°C° 0.1 mm 2 mps 740 mmHg 90%
    01:00 +18°C° 0.1 mm 2 mps 740 mmHg 91%
    02:00 +19°C° 0.1 mm 2 mps 740 mmHg 92%
    03:00 +19°C° 0.1 mm 3 mps 740 mmHg 92%
    04:00 +19°C° 0.1 mm 3 mps 740 mmHg 93%
    05:00 +20°C° 0 mm 4 mps 740 mmHg 88%
    06:00 +20°C° 0 mm 4 mps 740 mmHg 82%
    07:00 +21°C° 0 mm 5 mps 740 mmHg 77%
    08:00 +22°C° 0 mm 5 mps 740 mmHg 72%
    09:00 +23°C° 0 mm 5 mps 741 mmHg 67%
    10:00 +25°C° 0 mm 5 mps 741 mmHg 61%
    11:00 +25°C° 0.1 mm 5 mps 741 mmHg 60%
    12:00 +25°C° 0.1 mm 5 mps 741 mmHg 59%
    13:00 +26°C° 0.1 mm 6 mps 741 mmHg 58%
    14:00 +24°C° 0 mm 6 mps 741 mmHg 56%
    15:00 +24°C° 0 mm 6 mps 741 mmHg 54%
    16:00 +24°C° 0 mm 6 mps 741 mmHg 52%
    17:00 +22°C° 0 mm 5 mps 741 mmHg 57%
    18:00 +21°C° 0 mm 4 mps 741 mmHg 62%
    19:00 +19°C° 0 mm 3 mps 741 mmHg 68%
    20:00 +18°C° 0 mm 3 mps 742 mmHg 69%
    21:00 +17°C° 0 mm 3 mps 742 mmHg 71%
    22:00 +16°C° 0 mm 3 mps 742 mmHg 73%
    23:00 +15°C° 0 mm 2 mps 743 mmHg 75%
    Show more